Location: Baix
(44.7118°N, 4.7648°E)
Time: 06:15:21
(UTC+00:00)

Vanguard 1 - Pass Details

Date: 01 December 2020
Orbit: 648 x 3834 km, 34.3° (Epoch: 21 January)

Event Time Altitude Azimuth Distance (km) Brightness Sun altitude
Rises 04:39:27 0° 235° (SW) 3,258 - -24.0°
Reaches altitude 10° 04:41:41 10° 225° (SW) 2,522 - -23.6°
Exits shadow 04:43:10 18° 214° (SW) 2,129 11.5 -23.3°
Maximum altitude 04:46:59 34° 161° (SSE) 1,822 11.6 -22.7°
Drops below altitude 10° 04:55:29 10° 101° (ESE) 4,101 14.4 -21.2°
Sets 05:00:15 0° 95° (E) 5,661 15.5 -20.3°
